GW0587 Weather Reports


Display with metric or nautical units.
time (UTC)temp
F
wind
direction
speed
MPH
gust
MPH
rain 1hr
in
rain 24hr
in
rain mn
in
humidity
%
barometer
mb
20260902093051 78 0 0.0 0.0 0.00 0.00 0.00 78 1017.6
20260902091601 78 0 0.0 0.0 0.00 0.00 0.00 77 1017.3
20260902090052 78 0 0.0 0.0 0.00 0.00 0.00 77 1017.4
20260902084548 79 0 0.0 0.0 0.00 0.00 0.00 77 1017.5
20260902083055 79 0 0.0 0.0 0.00 0.00 0.00 76 1017.3
20260902081557 80 0 0.0 0.0 0.00 0.00 0.00 76 1017.4
20260902080053 80 0 0.0 0.0 0.00 0.00 0.00 75 1017.4
20260902074559 81 0 0.0 0.0 0.00 0.00 0.00 74 1017.5
20260902073056 81 0 0.0 0.0 0.00 0.00 0.00 73 1017.4
20260902071551 81 0 0.0 0.0 0.00 0.00 0.00 73 1017.3
20260902070105 81 0 0.0 0.0 0.00 0.00 0.00 73 1017.5
20260902064549 81 0 0.0 0.0 0.00 0.00 0.00 73 1017.5
20260902063106 81 0 0.0 0.0 0.00 0.00 0.00 73 1017.5
20260902061552 81 0 0.0 0.0 0.00 0.00 0.00 73 1017.5
20260902060106 81 0 0.0 0.0 0.00 0.00 0.00 73 1017.6
20260902054548 82 0 0.0 0.0 0.00 0.00 0.00 73 1017.6
20260902053056 82 0 0.0 0.0 0.00 0.00 0.00 73 1017.2
20260902051552 82 0 0.0 0.0 0.00 0.00 0.00 72 1017.3
20260902050050 82 0 0.0 0.0 0.00 0.00 0.00 71 1017.1
20260902044548 83 0 0.0 0.0 0.00 0.00 0.00 71 1017.1
20260902043057 83 0 0.0 0.0 0.00 0.00 0.00 71 1017.0
20260902041605 84 0 0.0 0.0 0.00 0.00 0.00 69 1017.0
20260902040052 84 0 0.0 0.0 0.00 0.00 0.00 69 1017.0
20260902034547 85 0 0.0 0.0 0.00 0.00 0.00 67 1017.1
20260902033101 84 0 0.0 0.0 0.00 0.00 0.00 68 1017.1
20260902031555 84 0 0.0 0.0 0.00 0.00 0.00 68 1017.1
20260902030049 84 0 0.0 0.0 0.00 0.00 0.00 68 1017.0
20260902024547 85 0 0.0 0.0 0.00 0.00 0.00 67 1016.8
20260902023056 85 0 0.0 0.0 0.00 0.00 0.00 67 1016.7
20260902021553 85 0 0.0 0.0 0.00 0.00 0.00 67 1016.5
20260902020101 86 0 0.0 0.0 0.00 0.00 0.00 66 1016.5
20260902014551 86 0 0.0 0.0 0.00 0.00 0.00 65 1016.3
20260902013055 87 0 0.0 0.0 0.00 0.00 0.00 63 1016.5
20260902011552 88 0 0.0 0.0 0.00 0.00 0.00 61 1016.2
20260902010047 89 0 0.0 0.0 0.00 0.00 0.00 60 1016.2
20260902004548 90 0 0.0 0.0 0.00 0.00 0.00 58 1016.1
20260902003058 91 0 0.0 1.0 0.00 0.00 0.00 55 1016.1
20260902001557 93 0 0.0 1.0 0.00 0.00 0.00 53 1015.9
20260902000115 94 0 0.0 4.0 0.00 0.00 0.00 49 1016.0
20260901234547 95 0 0.0 5.0 0.00 0.00 0.00 47 1016.1
20260901233055 95 0 0.0 2.0 0.00 0.00 0.00 46 1016.1
20260901231551 95 0 1.0 5.0 0.00 0.00 0.00 44 1016.2
20260901230059 95 44 1.0 6.0 0.00 0.00 0.00 44 1016.2
20260901224553 96 0 0.0 6.0 0.00 0.00 0.00 47 1016.3
20260901223055 96 87 1.0 5.0 0.00 0.00 0.00 45 1016.2
20260901221551 96 98 0.0 4.0 0.00 0.00 0.00 44 1016.1
20260901220128 97 0 0.0 4.0 0.00 0.00 0.00 44 1016.2
20260901214553 97 0 1.0 4.0 0.00 0.00 0.00 45 1016.1
20260901213109 97 0 1.0 4.0 0.00 0.00 0.00 46 1016.3
20260901211548 97 0 1.0 5.0 0.00 0.00 0.00 47 1016.3
20260901210058 98 206 1.0 4.0 0.00 0.00 0.00 47 1016.5
20260901204609 99 140 0.0 4.0 0.00 0.00 0.00 44 1016.5
20260901203107 99 184 0.0 6.0 0.00 0.00 0.00 44 1016.7
20260901201600 99 155 0.0 8.0 0.00 0.00 0.00 44 1017.0
20260901200059 99 169 1.0 8.0 0.00 0.00 0.00 45 1017.0
20260901194556 98 178 0.0 4.0 0.00 0.00 0.00 46 1017.1
20260901193106 97 270 0.0 1.0 0.00 0.00 0.00 48 1017.2
20260901191551 97 0 0.0 3.0 0.00 0.00 0.00 47 1017.5
20260901184558 98 19 1.0 7.0 0.00 0.00 0.00 47 1018.0
20260901183057 98 121 2.0 4.0 0.00 0.00 0.00 47 1018.1
20260901181553 97 0 0.0 3.0 0.00 0.00 0.00 49 1018.2
20260901180048 97 141 1.0 4.0 0.00 0.00 0.00 48 1018.2
20260901174558 97 279 2.0 6.0 0.00 0.00 0.00 49 1018.6
20260901173101 97 330 0.0 5.0 0.00 0.00 0.00 48 1018.9
20260901171552 96 286 1.0 3.0 0.00 0.00 0.00 50 1019.1
20260901170101 95 0 0.0 4.0 0.00 0.00 0.00 52 1019.3
20260901164608 95 0 1.0 6.0 0.00 0.00 0.00 51 1019.4
20260901163054 95 61 0.0 3.0 0.00 0.00 0.00 51 1019.5
20260901161554 95 312 1.0 3.0 0.00 0.00 0.00 53 1019.6
20260901160046 94 0 0.0 3.0 0.00 0.00 0.00 55 1019.6
20260901154557 92 0 0.0 5.0 0.00 0.00 0.00 58 1019.9
20260901153057 92 294 2.0 7.0 0.00 0.00 0.00 58 1019.8
20260901151547 92 300 2.0 4.0 0.00 0.00 0.00 59 1020.0
20260901150059 92 0 0.0 2.0 0.00 0.00 0.00 61 1019.9
20260901144600 91 0 0.0 2.0 0.00 0.00 0.00 62 1019.8
20260901143054 89 0 0.0 4.0 0.00 0.00 0.00 65 1019.8
20260901141548 89 0 0.0 2.0 0.00 0.00 0.00 65 1020.0
20260901134611 87 0 0.0 0.0 0.00 0.00 0.00 69 1019.9
20260901133055 85 0 0.0 0.0 0.00 0.00 0.00 70 1020.0
20260901131550 85 0 0.0 0.0 0.00 0.00 0.00 72 1020.0
20260901130059 83 0 0.0 0.0 0.00 0.00 0.00 75 1019.9
20260901124554 81 0 0.0 0.0 0.00 0.00 0.00 78 1019.8
20260901123049 78 0 0.0 0.0 0.00 0.00 0.00 82 1019.6
20260901121547 77 0 0.0 0.0 0.00 0.00 0.00 84 1019.5
20260901120054 76 0 0.0 0.0 0.00 0.00 0.00 86 1019.4
20260901114548 76 0 0.0 0.0 0.00 0.00 0.00 86 1019.3
20260901113052 76 0 0.0 0.0 0.00 0.00 0.00 86 1018.9
20260901111554 76 0 0.0 0.0 0.00 0.00 0.00 85 1018.8
20260901110051 76 0 0.0 0.0 0.00 0.00 0.00 85 1018.7
20260901104548 76 0 0.0 0.0 0.00 0.00 0.00 85 1018.7
20260901103057 76 0 0.0 0.0 0.00 0.00 0.00 84 1018.6
20260901101556 77 0 0.0 0.0 0.00 0.00 0.00 84 1018.5
20260901100051 77 0 0.0 0.0 0.00 0.00 0.00 83 1018.3
20260901094550 77 0 0.0 0.0 0.00 0.00 0.00 83 1018.3